Regional Weather Roundup
Issued by NWS Albany, NY

Home | Current Version | Previous Version | Text Only | Print | Product List | Glossary On
Versions: 1 2 3 4 5 6 7 8 9 10 11 12 13 14 15 16 17 18 19 20 21 22 23 24 25 26 27 28
000
ASUS41 KALY 190110
RWRALY

NEW YORK STATE HOURLY WEATHER ROUNDUP
NATIONAL WEATHER SERVICE ALBANY NY
900 PM EDT FRI APR 18 2014

NOTE: "FAIR" INDICATES FEW OR NO CLOUDS BELOW 12,000 FEET WITH NO
SIGNIFICANT WEATHER AND/OR NO OBSTRUCTIONS TO VISIBILITY.

NYZ032-033-038>043-046>054-057>066-NYZ062>081-190200-
EAST


CITY           SKY/WX    TMP DP  RH WIND       PRES   REMARKS
ALBANY         MOCLDY    47  24  40 S10       30.23F
GLENS FALLS    PTCLDY    46  25  43 SW5       30.22S
POUGHKEEPSIE   CLOUDY    46  27  47 SE5       30.27F
NEWBURGH       PTCLDY    43  28  56 VRB5      30.27F
MONTGOMERY     CLOUDY    45  29  53 S5        30.26S
WHITE PLAINS   CLOUDY    40  31  70 CALM      30.29R
ISLIP          CLOUDY    41  33  73 SW5       30.31R
NEW YORK CITY  CLOUDY    43  30  60 S9        30.31R
CENTRAL PARK   CLOUDY    44  31  60 VRB5      30.33R
$$

NYZ005>009-017-018-044>046-055-056-190200-
CENTRAL


CITY           SKY/WX    TMP DP  RH WIND       PRES   REMARKS
FULTON         LGT RAIN  45  35  68 N7        30.21S
SYRACUSE       LGT RAIN  52  33  48 NW8       30.22R
ROME           CLOUDY    49  31  49 SE7       30.20R
ELMIRA         CLOUDY    53  34  48 NE8       30.20R
BINGHAMTON     MOCLDY    47  30  51 S7        30.19R
MONTICELLO     CLOUDY    43  25  49 CALM      30.26S
$$

NYZ026>034-041>043-190200-
NORTH


CITY           SKY/WX    TMP DP  RH WIND       PRES   REMARKS
WATERTOWN      LGT RAIN  44  38  79 CALM      30.21R
FORT DRUM      NOT AVBL
MASSENA        LGT RAIN  44  42  93 S5        30.19S
SARANAC LAKE   CLOUDY    45  19  35 VRB5      30.15R
PLATTSBURGH    MOCLDY    46  19  34 W5        30.17R
$$

NYZ001>004-010>016-019>021-190200-
WEST


CITY           SKY/WX    TMP DP  RH WIND       PRES   REMARKS
NIAGARA FALLS  PTCLDY    44  37  76 CALM      30.25R
BUFFALO        CLOUDY    47  39  74 NW3       30.25S
DUNKIRK        CLOUDY    47  37  68 W6        30.27R
JAMESTOWN      PTCLDY    46  37  71 NW7       30.24S
WELLSVILLE     CLOUDY    51  35  54 N6        30.22R
ROCHESTER      MOCLDY    45  37  76 W3        30.24R
PENN YAN       CLOUDY    50  34  54 CALM      30.22R
$$

             KEY
       WCI = WIND CHILL INDEX
       VSB = VISIBILITY
       HX  = HEAT INDEX
$$



USA.gov is the U.S. government's official web portal to all federal, state and local government web resources and services.